Tracking 19562 objects as of 23-Mar-2019
HD Live streaming from Space Station
objects crossing your sky now

SKYNET 4A

Track SKYNET 4A now!
SKYNET 4A is classified as:


NORAD ID: 20401
Int'l Code: 1990-001A
Perigee: 36,089.9 km
Apogee: 36,220.1 km
Inclination: 13.4 °
Period: 1,454.6 minutes
Semi major axis: 42525 km
RCS: 9.1377 m2 (large)
Launch date: January 1, 1990
Source: United Kingdom (UK)
Launch site: AIR FORCE EASTERN TEST RANGE (AFETR)
aabbcc
Your satellite tracking list
Your tracking list is empty




NASA's NSSDC Master Catalog

Two Line Element Set (TLE):
1 20401U 90001A   19080.24357887 -.00000153  00000-0  00000+0 0  9998
2 20401  13.3754   7.0642 0015309 273.5876 274.4756  0.98996765102688
Source of the keplerian elements: AFSPC